Temp
66 60 56 64 64 67 69 60 60 65 68 63 59 58 62 63 68 65 67 68 69 70 74 77 80 81 81 77 76 77 74 73 74 72 70 69 69 69 70 70 73 73 73 73
62 57 69 72 73 70 67 62 59 64 68 66 60 59 61 62 65 66 68 68 69 70 70 76 80 81 80 76 76 76 76 73 73 74 72 73 72 72 74 72 73 74 74 73
59 68 76 74 70 67 62 60 59 59 65 64 63 56 60 63 65 67 70 70 70 69 69 71 75 77 78 75 75 76 75 74 73 74 73 72 72 70 71 73 73 72 73 74
64 75 75 71 70 68 54 70 68 63 56 51 63 47 55 60 60 63 66 70 69 69 70 70 73 73 76 76 78 77 75 73 74 73 72 72 69 70 71 73 74 75 75 75
66 72 69 68 71 75 66 74 68 65 58 58 55 50 55 61 58 62 65 69 71 71 71 69 72 76 74 77 77 77 74 73 74 73 73 72 70 72 74 73 74 73 72 72
70 76 72 72 77 75 77 71 67 62 54 45 53 53 51 54 64 62 66 70 72 71 73 71 72 73 74 78 77 76 74 72 72 74 73 72 71 71 71 71 72 72 72 71
67 71 72 76 68 72 68 55 46 45 45 45 50 51 53 62 68 69 65 69 73 72 72 71 71 70 72 76 75 77 74 71 72 73 73 72 72 72 73 71 72 71 71 72
54 55 70 75 69 64 59 56 46 40 40 45 53 47 55 65 66 68 70 70 72 72 75 72 72 74 72 75 75 77 72 72 72 73 72 72 72 71 72 73 71 72 73 78
55 59 74 76 74 72 60 55 59 48 44 46 48 55 64 65 64 66 66 70 72 73 74 73 75 74 73 73 75 76 74 73 72 73 73 72 72 72 72 72 74 73 74 75
58 54 64 74 74 72 66 66 54 48 40 39 45 49 51 59 59 66 67 65 67 73 74 74 74 73 73 75 77 76 75 74 75 74 74 74 73 73 71 72 74 74 75 75
56 55 61 67 62 61 62 56 51 49 45 40 40 48 58 58 60 66 63 65 66 72 75 76 76 76 78 76 75 77 75 74 75 76 75 74 73 73 72 72 74 74 73 74
60 53 50 58 68 72 64 58 54 48 44 44 46 51 62 60 62 65 65 68 67 70 75 78 79 77 76 76 76 76 76 76 76 76 76 75 75 74 73 73 74 74 74 73
60 50 45 52 58 65 62 64 54 51 46 44 44 51 60 62 62 66 66 64 62 65 66 67 74 75 75 75 76 75 76 77 77 77 76 76 75 73 73 73 74 73 72 73
65 49 49 45 52 56 58 64 61 56 47 45 49 54 55 60 62 62 64 63 62 62 65 66 65 70 72 70 76 76 75 76 76 76 76 75 74 74 74 73 73 73 73 73
60 50 50 55 61 63 60 63 64 57 55 52 56 54 56 57 58 61 62 64 65 63 64 65 65 65 66 69 71 73 74 75 76 76 74 75 74 74 74 73 73 73 74 74
58 51 50 53 62 61 59 64 63 63 62 58 55 53 58 58 60 59 62 63 65 65 66 66 67 67 66 70 71 73 70 71 72 77 75 75 74 73 75 73 73 73 73 74
58 53 48 45 56 58 51 59 61 61 61 60 53 55 57 57 60 60 61 63 65 65 66 65 65 66 67 67 67 69 69 68 67 69 71 73 75 74 73 74 73 73 72 73
54 51 47 45 47 42 55 65 67 62 63 61 58 58 59 60 60 61 62 62 63 65 64 64 64 65 67 68 68 69 69 69 68 67 68 70 72 73 73 71 73 72 72 72
58 50 46 44 42 51 60 63 62 57 56 63 60 62 62 62 60 60 63 65 65 62 61 63 64 66 67 69 69 69 68 69 69 69 68 70 72 73 73 72 71 70 70 69
55 53 51 44 42 40 54 67 69 64 48 64 64 63 60 59 51 54 64 65 63 61 62 63 65 66 67 69 69 67 67 67 67 68 69 70 73 72 71 70 70 69 68 67
49 48 47 44 43 50 63 68 69 50 51 63 64 62 60 56 56 59 61 61 62 61 63 64 66 66 66 66 69 67 67 66 68 68 68 65 66 71 70 69 68 67 65 63
51 47 45 44 43 44 67 65 58 59 59 64 63 61 60 59 61 60 60 58 59 59 63 65 65 65 65 67 66 65 66 67 67 67 66 64 67 67 67 65 64 64 63 61
50 53 50 51 50 59 62 62 63 63 62 62 61 62 61 60 60 59 58 56 58 59 61 64 64 64 65 66 66 64 64 66 67 67 66 65 65 65 65 64 62 61 61 60
53 56 55 57 58 61 65 65 65 67 64 65 63 62 61 59 60 59 58 57 58 61 61 63 63 62 63 66 66 66 67 67 67 65 65 64 63 62 62 63 62 60 60 59
55 56 54 53 58 61 65 64 65 64 65 64 62 61 59 60 58 58 57 60 60 61 61 62 62 61 62 63 64 65 65 65 63 62 61 60 59 56 53 51 51 53 49 55
56 57 54 53 60 60 60 63 66 63 63 62 60 58 59 59 58 60 58 58 59 60 61 61 61 61 62 63 63 63 64 64 62 61 60 59 58 57 54 53 49 49 47 47
MSLP
1008.42 1009.34 1009.36 1009.02 1009.88 1009.89 1010.66 1011.85 1012.21 1012.75 1012.75 1013.27 1013.71 1014.05 1013.86 1014.34 1014.24 1014.14 1014.00 1013.96 1014.09 1013.99 1014.36 1014.67 1014.75 1015.49 1015.96 1016.46 1016.77 1016.91 1017.23 1017.68 1017.74 1018.29 1019.24 1019.60 1019.51 1019.36 1019.27 1019.09 1018.84 1018.99 1018.94 1018.93
1008.95 1008.92 1008.17 1008.33 1008.93 1009.36 1010.04 1010.83 1012.06 1012.76 1012.94 1013.12 1013.71 1013.81 1013.65 1013.86 1014.07 1014.11 1014.21 1014.07 1013.95 1014.07 1013.92 1013.91 1014.41 1014.88 1015.39 1015.85 1016.33 1016.86 1017.18 1017.46 1017.52 1017.82 1018.41 1018.73 1019.17 1019.05 1018.84 1018.78 1018.95 1018.81 1019.02 1018.89
1008.41 1007.22 1006.85 1007.70 1008.19 1008.94 1009.63 1010.14 1011.21 1012.11 1012.73 1013.06 1013.90 1014.19 1013.37 1013.09 1013.24 1013.68 1013.81 1013.59 1013.63 1013.77 1013.77 1014.36 1014.63 1015.06 1015.42 1015.78 1016.19 1016.75 1017.09 1017.14 1017.42 1017.75 1018.20 1018.38 1018.84 1019.20 1019.13 1019.11 1019.26 1019.05 1018.99 1018.99
1007.45 1006.20 1006.03 1006.57 1006.94 1007.77 1009.04 1008.98 1010.22 1011.43 1012.19 1012.77 1013.58 1014.45 1013.30 1012.71 1013.23 1013.47 1013.61 1013.64 1013.63 1013.56 1014.00 1014.19 1014.44 1014.85 1015.32 1015.47 1015.92 1016.44 1016.83 1017.12 1017.47 1017.75 1018.14 1018.24 1018.83 1019.20 1019.06 1018.84 1018.93 1018.99 1018.93 1018.94
1006.47 1005.72 1005.47 1005.56 1005.71 1006.43 1007.38 1008.17 1009.70 1011.09 1011.90 1012.71 1014.32 1014.54 1012.44 1012.25 1012.47 1012.17 1012.43 1012.95 1013.46 1013.69 1013.93 1013.84 1014.05 1014.40 1014.98 1015.57 1015.75 1016.22 1016.60 1017.03 1017.16 1017.57 1017.96 1018.35 1018.68 1018.81 1018.66 1018.76 1018.79 1018.91 1018.84 1019.04
1006.01 1005.28 1005.13 1004.96 1005.08 1005.58 1006.41 1008.14 1010.17 1011.53 1012.53 1013.89 1013.69 1013.91 1012.85 1012.50 1011.37 1011.42 1011.99 1012.13 1012.88 1013.40 1013.81 1014.09 1014.06 1014.41 1014.80 1015.22 1015.98 1016.32 1016.62 1017.05 1017.08 1017.32 1017.83 1018.16 1018.46 1018.53 1018.58 1018.89 1018.98 1018.96 1018.95 1019.21
1006.21 1005.42 1004.95 1004.62 1005.19 1005.57 1006.45 1008.57 1010.58 1012.14 1013.14 1013.68 1013.42 1013.37 1012.26 1012.32 1010.75 1010.23 1011.21 1011.72 1011.98 1012.47 1013.32 1013.85 1014.00 1014.10 1014.58 1014.99 1015.59 1016.34 1016.80 1017.19 1017.19 1017.19 1017.59 1017.90 1018.17 1018.26 1018.37 1018.63 1018.74 1019.06 1019.18 1018.97
1007.27 1005.92 1005.07 1004.67 1005.14 1006.04 1007.04 1008.87 1010.88 1012.58 1014.02 1013.79 1013.10 1012.72 1011.81 1011.74 1010.96 1010.79 1010.41 1010.91 1011.49 1011.95 1012.45 1013.17 1013.23 1013.40 1013.89 1014.47 1015.02 1015.80 1016.58 1016.92 1017.16 1017.23 1017.37 1017.74 1017.90 1018.04 1018.17 1018.07 1018.45 1018.57 1018.52 1018.29
1007.35 1006.48 1005.36 1004.83 1004.96 1005.80 1006.99 1008.42 1009.68 1012.09 1013.75 1014.19 1014.02 1012.74 1011.64 1011.05 1011.22 1011.00 1011.14 1011.49 1011.68 1011.56 1011.81 1012.29 1012.80 1012.96 1013.53 1013.85 1014.27 1014.96 1015.78 1016.48 1016.78 1016.89 1017.06 1017.41 1017.69 1017.77 1017.98 1018.15 1018.17 1018.00 1017.87 1017.71
1007.72 1007.59 1006.72 1005.47 1005.30 1005.69 1006.36 1007.68 1009.86 1012.22 1014.18 1014.85 1014.43 1013.44 1011.89 1011.56 1011.52 1010.52 1010.92 1011.82 1012.19 1011.89 1011.76 1011.71 1012.16 1012.49 1012.75 1012.87 1013.24 1014.15 1014.84 1015.51 1015.89 1016.35 1016.57 1016.90 1017.24 1017.35 1017.67 1018.09 1018.00 1017.81 1017.57 1017.41
1007.77 1008.48 1007.94 1006.94 1006.95 1006.88 1007.02 1008.17 1010.52 1012.62 1014.06 1014.84 1014.72 1013.35 1011.46 1011.90 1011.83 1010.97 1010.84 1011.70 1012.09 1011.64 1011.53 1011.41 1011.49 1011.85 1011.91 1012.64 1013.04 1013.60 1014.16 1014.86 1015.39 1015.73 1015.94 1016.31 1016.77 1017.04 1017.18 1017.77 1017.87 1017.76 1017.49 1017.31
1008.28 1009.33 1009.70 1008.86 1007.74 1007.16 1007.31 1008.45 1010.04 1012.39 1014.11 1014.61 1014.34 1013.02 1012.04 1012.01 1011.64 1010.93 1011.42 1012.01 1012.31 1011.82 1011.70 1011.28 1010.89 1011.13 1011.72 1012.32 1012.64 1012.87 1013.45 1014.10 1014.62 1015.07 1015.41 1015.73 1016.00 1016.44 1016.90 1017.11 1017.52 1017.70 1017.60 1017.49
1008.58 1010.03 1010.77 1009.67 1008.93 1007.87 1008.36 1008.80 1009.57 1011.11 1012.68 1013.85 1014.00 1012.99 1012.42 1012.20 1011.91 1011.35 1011.46 1011.71 1012.07 1012.07 1011.98 1011.92 1011.05 1010.83 1010.98 1011.30 1011.95 1012.45 1012.90 1013.30 1013.76 1014.34 1014.96 1015.33 1015.62 1015.97 1016.28 1016.57 1016.96 1017.36 1017.63 1017.75
1008.52 1010.57 1011.06 1011.30 1010.73 1009.98 1009.47 1008.92 1009.45 1010.35 1012.03 1012.97 1012.76 1012.40 1012.85 1012.64 1012.58 1012.15 1011.73 1011.96 1011.88 1011.82 1011.61 1011.88 1012.08 1011.53 1010.64 1011.08 1011.30 1011.69 1012.21 1012.85 1013.41 1013.78 1014.63 1015.08 1015.39 1015.50 1015.89 1016.14 1016.41 1016.77 1017.19 1017.43
1009.16 1010.91 1011.11 1010.97 1010.49 1009.82 1009.61 1009.26 1009.05 1009.64 1010.38 1011.33 1011.32 1012.05 1012.21 1012.68 1012.73 1012.65 1012.21 1011.51 1011.11 1011.19 1011.37 1011.25 1011.59 1012.10 1011.63 1010.98 1011.16 1011.41 1012.02 1012.38 1012.74 1013.23 1014.05 1014.33 1014.79 1015.13 1015.48 1015.89 1016.12 1016.29 1016.52 1016.82
1009.75 1010.90 1011.27 1011.35 1010.66 1010.18 1009.78 1009.23 1009.24 1009.40 1009.84 1010.40 1011.00 1012.20 1012.23 1012.49 1012.73 1012.55 1011.77 1011.49 1011.23 1010.61 1010.51 1010.52 1011.12 1011.35 1011.54 1011.43 1010.95 1011.34 1011.63 1012.23 1012.74 1013.25 1013.55 1013.88 1014.39 1014.65 1014.88 1015.22 1015.54 1015.89 1016.18 1016.34
1010.15 1011.19 1012.25 1012.28 1011.42 1010.75 1010.37 1009.59 1009.15 1009.87 1009.91 1010.38 1011.23 1011.81 1012.60 1012.93 1012.74 1012.07 1011.60 1011.09 1010.64 1010.73 1010.59 1010.83 1011.18 1011.12 1010.95 1011.43 1011.68 1011.47 1011.84 1011.97 1012.59 1013.28 1013.53 1013.57 1013.71 1014.17 1014.57 1014.72 1015.00 1015.38 1015.68 1015.93
1010.06 1011.59 1012.42 1013.11 1012.33 1011.86 1010.49 1009.52 1009.71 1010.06 1010.56 1010.74 1011.27 1012.07 1012.49 1012.42 1012.02 1011.87 1011.60 1011.12 1010.55 1010.66 1011.19 1011.34 1011.21 1011.21 1010.78 1011.02 1011.54 1012.17 1012.23 1011.63 1012.49 1012.91 1013.11 1013.44 1013.40 1013.50 1013.91 1014.48 1014.74 1014.88 1015.32 1015.67
1009.44 1011.31 1012.90 1013.41 1013.24 1012.05 1010.40 1009.65 1009.33 1009.89 1011.39 1011.49 1011.56 1011.99 1012.33 1012.61 1013.06 1012.40 1011.57 1011.30 1011.63 1011.91 1011.90 1011.75 1011.63 1011.06 1010.60 1010.53 1010.74 1011.81 1012.36 1012.02 1012.37 1012.49 1013.19 1013.59 1013.37 1013.18 1013.33 1013.85 1014.34 1014.83 1015.16 1015.75
1010.14 1010.73 1012.39 1013.66 1013.47 1012.32 1010.47 1009.31 1008.81 1009.71 1011.47 1011.59 1011.65 1012.05 1012.46 1012.85 1013.39 1012.19 1011.79 1011.77 1011.76 1011.98 1011.88 1011.49 1011.39 1010.75 1010.27 1010.16 1010.25 1011.30 1011.79 1011.90 1012.24 1012.87 1012.84 1012.92 1013.27 1012.99 1013.27 1013.54 1014.00 1014.63 1015.50 1016.14
1010.91 1012.13 1012.83 1013.18 1012.80 1011.55 1009.93 1009.07 1008.73 1009.78 1011.22 1011.27 1011.53 1011.82 1012.15 1012.78 1011.92 1011.74 1011.69 1011.76 1011.92 1012.11 1011.90 1011.71 1011.17 1010.76 1010.58 1009.97 1010.02 1010.52 1011.31 1011.88 1012.12 1012.56 1012.46 1013.01 1013.10 1014.06 1013.52 1014.18 1014.65 1014.93 1015.74 1016.55
1011.00 1011.96 1012.66 1012.87 1012.20 1010.77 1009.27 1008.92 1009.20 1009.70 1010.23 1010.65 1011.24 1011.58 1011.91 1011.84 1011.70 1011.75 1012.08 1012.09 1012.17 1012.36 1012.03 1011.70 1011.09 1011.08 1011.10 1010.75 1010.66 1010.91 1011.41 1011.83 1012.38 1012.26 1012.79 1013.25 1012.52 1013.42 1012.29 1014.30 1015.39 1015.68 1016.09 1017.04
1010.89 1010.77 1011.25 1011.62 1010.66 1009.55 1008.97 1008.89 1008.76 1009.19 1009.91 1010.49 1010.80 1010.99 1011.47 1012.06 1012.31 1012.38 1012.56 1012.53 1012.41 1012.33 1012.04 1011.85 1011.42 1011.25 1011.29 1010.95 1010.86 1011.47 1011.91 1011.88 1011.76 1012.40 1013.26 1013.70 1013.19 1012.72 1013.88 1014.96 1015.61 1015.88 1017.06 1017.56
1010.39 1010.18 1010.72 1010.66 1009.95 1009.20 1009.05 1009.25 1009.06 1009.27 1010.02 1010.22 1010.88 1011.24 1011.75 1012.12 1012.30 1012.31 1012.33 1012.46 1012.45 1012.34 1011.98 1011.94 1011.65 1011.74 1011.65 1011.06 1011.14 1011.98 1012.40 1012.19 1012.12 1013.21 1013.92 1014.33 1014.18 1014.99 1015.91 1016.36 1016.34 1016.83 1017.74 1017.92
1009.92 1009.59 1010.29 1010.10 1009.63 1009.19 1009.10 1009.42 1009.55 1010.08 1010.17 1010.55 1011.10 1011.59 1011.91 1012.10 1012.42 1012.39 1012.25 1012.22 1012.20 1012.18 1011.95 1012.02 1012.02 1012.09 1011.96 1011.76 1011.81 1012.31 1012.48 1012.61 1013.02 1013.81 1014.43 1015.02 1014.94 1015.81 1016.52 1017.84 1018.32 1017.98 1018.73 1019.07
1009.39 1008.96 1009.31 1009.41 1008.78 1008.85 1009.35 1009.58 1009.55 1010.02 1010.40 1010.68 1011.29 1011.97 1012.02 1011.98 1012.02 1012.22 1012.38 1012.35 1012.37 1012.38 1011.98 1012.21 1012.45 1012.33 1012.32 1012.26 1012.62 1012.74 1013.22 1013.42 1013.68 1014.57 1015.23 1015.62 1016.15 1016.99 1017.28 1017.76 1018.90 1019.09 1019.65 1019.21
Wind_Speed
2 5 6 11 6 6 7 6 6 2 5 1 3 5 11 7 4 5 3 5 5 1 6 5 11 17 17 11 10 11 10 7 5 4 5 3 3 3 2 3 6 4 4 4
5 6 13 7 4 10 10 9 4 2 3 2 3 9 8 4 5 6 5 6 7 6 3 5 13 16 14 11 13 12 10 9 5 4 3 4 4 3 2 2 3 8 6 5
7 12 8 6 6 7 3 8 5 6 5 1 4 8 7 4 4 4 7 6 7 9 9 6 10 11 11 12 13 14 10 9 6 6 4 3 4 3 1 2 2 3 5 5
7 13 12 6 5 14 7 11 16 15 5 3 12 5 5 5 6 8 7 10 9 8 6 7 12 10 12 12 12 12 10 9 7 8 5 7 5 4 4 3 3 5 6 5
8 6 4 4 3 7 11 14 19 16 5 4 9 3 7 5 7 12 13 12 10 7 9 10 13 14 8 8 11 12 10 8 7 8 7 5 5 3 2 2 4 4 4 4
7 1 2 5 2 2 2 7 6 5 3 3 5 9 7 2 12 0 11 14 11 8 8 7 8 7 7 10 7 9 10 7 7 7 7 8 8 6 2 4 3 3 3 4
7 7 3 1 5 8 8 8 5 5 5 5 5 2 6 8 12 11 10 14 16 15 11 13 11 9 8 12 12 10 9 7 7 9 7 7 8 7 6 6 5 3 3 3
1 9 8 4 7 7 2 8 7 6 4 5 5 3 4 4 12 13 3 12 15 15 12 14 12 13 11 12 13 13 11 8 8 9 9 7 7 5 5 6 4 4 5 5
5 9 6 4 4 9 2 0 6 8 2 3 5 5 3 7 6 9 11 7 11 14 13 13 13 9 11 10 15 15 13 10 10 11 8 8 7 7 5 5 5 5 5 5
1 3 1 6 2 3 6 4 3 5 4 2 4 5 6 3 6 3 6 5 7 5 9 10 8 8 9 11 15 15 15 15 12 11 10 9 9 8 6 5 6 7 5 5
2 4 9 5 5 4 4 2 8 7 4 6 1 7 3 5 4 8 7 4 3 10 7 9 9 11 12 8 10 15 15 14 13 12 10 9 8 7 7 6 5 6 4 5
3 5 2 7 8 5 4 4 5 6 4 1 3 6 6 6 8 6 4 5 8 9 4 9 14 13 10 12 11 13 14 15 14 13 11 10 10 9 7 7 7 6 6 5
0 2 4 11 10 10 5 6 5 7 4 5 6 5 5 4 5 6 9 5 5 6 6 9 7 13 14 15 14 13 13 15 14 13 12 11 11 10 9 8 7 7 6 7
9 2 8 7 7 5 6 8 3 5 4 5 7 5 7 7 5 4 5 6 3 3 4 2 5 8 13 11 14 14 13 12 13 13 12 11 11 10 9 9 7 7 8 7
6 4 4 6 5 4 2 7 10 3 5 7 9 8 5 7 6 6 5 4 4 3 4 1 1 4 7 9 11 11 9 12 13 14 13 13 11 9 9 8 8 7 7 7
3 2 1 5 7 8 4 8 6 9 6 5 9 2 4 3 5 7 11 8 6 7 5 3 5 4 3 7 11 10 9 8 6 11 12 12 10 10 11 9 8 7 7 6
4 4 4 2 4 6 6 6 3 4 2 4 3 3 4 2 7 6 8 7 7 6 4 6 2 3 4 0 4 10 7 8 7 5 6 9 12 11 10 10 7 7 7 6
7 6 3 3 5 1 8 6 12 13 7 9 9 8 9 8 8 6 7 6 9 9 4 2 4 4 4 5 4 4 4 8 4 4 1 5 8 11 10 8 9 7 5 6
4 6 3 5 4 5 5 4 3 6 6 2 5 5 3 4 1 8 9 9 8 2 3 4 6 5 3 6 6 4 6 4 3 3 2 4 8 11 11 10 7 4 4 4
6 6 7 3 4 4 7 4 1 8 1 4 3 3 5 5 2 6 6 4 4 2 1 5 7 7 6 5 13 6 5 4 7 2 6 8 12 10 9 7 8 4 7 7
4 4 6 3 3 6 5 5 1 4 8 8 6 7 6 5 9 1 3 3 4 2 4 6 5 6 5 5 11 14 11 10 7 6 4 7 13 8 7 8 8 9 9 8
6 7 4 3 2 4 4 2 6 8 4 9 8 8 9 7 8 3 5 1 2 2 3 6 5 4 4 6 9 8 9 6 5 3 8 6 11 1 8 11 8 7 9 9
2 7 6 7 8 7 3 5 3 6 4 5 6 7 9 8 4 4 3 3 2 3 4 2 4 4 4 4 9 11 5 6 6 8 10 10 11 12 7 6 6 9 6 6
1 2 4 5 4 4 5 6 4 6 5 2 3 3 4 5 7 5 3 2 0 1 3 2 5 5 4 4 10 12 10 7 10 8 8 9 12 11 7 5 4 7 4 5
5 3 4 1 5 2 4 6 8 8 8 9 7 4 3 6 4 6 3 2 0 1 2 3 4 4 4 6 9 8 10 10 11 10 8 8 8 10 10 7 4 5 4 2
4 7 5 6 6 6 3 8 9 9 7 7 7 3 3 5 8 7 6 5 4 2 3 4 3 4 5 8 9 8 7 10 11 9 7 8 7 6 6 8 6 12 6 6
Wind_Direction
274 81 217 229 177 222 151 120 144 64 173 95 205 262 245 133 184 162 161 112 139 133 155 167 177 158 158 157 152 161 147 167 150 123 119 127 180 192 252 218 189 179 222 166
6 229 241 234 153 139 144 133 117 93 255 42 42 281 263 219 177 173 197 178 176 132 152 84 160 160 161 155 150 155 160 163 164 135 129 151 172 215 243 179 180 180 196 199
175 242 216 199 201 144 128 156 166 139 148 46 48 297 278 215 216 199 204 209 178 159 147 141 155 159 150 152 153 157 161 164 157 145 121 94 76 29 10 200 151 166 197 200
210 260 245 197 141 136 171 210 149 157 139 196 149 264 261 240 224 192 172 216 218 165 171 144 155 145 166 163 157 160 165 153 165 151 145 154 151 178 213 198 165 182 196 179
260 348 71 84 234 157 212 163 168 182 158 98 189 354 264 161 244 232 200 209 201 205 174 163 165 153 153 155 168 169 168 153 163 149 158 165 152 176 215 164 170 186 183 179
233 268 202 210 265 245 112 105 141 163 97 93 230 171 280 201 252 266 196 201 194 196 177 180 169 143 143 152 165 173 165 166 167 156 166 166 166 178 156 169 202 191 189 176
333 279 271 121 34 352 61 61 1 357 11 223 258 158 226 348 297 236 191 192 192 196 173 174 169 163 156 169 163 172 175 176 185 169 171 177 175 182 179 181 176 167 187 193
110 324 146 226 169 181 132 141 157 190 194 253 303 333 321 341 15 32 23 180 178 192 192 183 183 176 172 169 170 176 178 184 186 187 178 186 178 177 194 193 163 201 206 207
38 333 332 167 176 125 254 292 186 107 348 77 315 312 287 16 19 4 48 41 188 194 191 192 196 173 183 170 176 181 180 189 189 191 185 183 184 186 210 176 194 208 222 208
352 0 236 305 130 234 145 179 41 19 120 210 297 278 235 6 313 313 24 90 338 222 196 192 200 184 192 189 177 175 181 188 193 190 185 186 188 190 187 188 205 217 213 168
116 89 299 24 39 263 333 96 56 108 107 148 195 268 226 157 257 308 9 34 354 240 217 197 201 211 205 186 173 183 178 185 192 196 191 181 182 197 179 183 198 204 192 172
335 123 308 254 279 328 119 138 116 120 231 127 172 269 119 155 235 279 19 23 28 2 300 220 209 208 195 202 182 183 182 182 191 195 190 197 186 187 190 198 178 199 196 204
275 9 22 350 352 -0 15 354 79 105 93 185 147 258 181 147 258 246 145 92 63 32 3 340 235 199 200 191 195 189 186 189 187 186 191 195 197 191 195 201 185 188 193 203
93 105 146 177 220 217 328 332 139 122 124 186 217 173 187 206 214 342 23 22 40 17 356 307 323 283 199 191 203 195 194 182 181 178 194 199 206 198 198 198 202 187 189 197
107 168 172 209 239 20 321 332 330 335 185 156 238 189 171 167 182 208 212 288 32 347 340 151 290 309 284 208 199 191 192 180 181 179 190 197 201 199 197 198 202 207 203 198
34 237 117 353 1 24 342 318 356 13 10 57 110 93 237 202 184 204 217 224 237 199 174 67 204 266 274 235 196 187 159 171 176 196 198 196 194 193 199 196 198 198 203 200
126 115 80 286 0 22 3 307 306 111 347 199 153 183 138 248 238 214 261 292 282 18 87 76 17 271 256 215 221 161 142 123 122 134 215 196 195 192 197 197 181 195 196 184
132 115 109 188 42 32 237 277 106 75 54 97 99 134 179 210 231 255 258 267 298 345 39 140 262 274 269 156 172 196 194 123 196 167 86 236 203 192 192 194 195 183 190 195
130 117 93 125 166 282 340 333 0 106 344 334 130 157 182 127 36 278 227 243 276 358 359 293 287 283 246 207 154 198 198 151 276 80 108 271 228 203 190 188 187 195 137 107
82 92 117 118 137 223 233 253 316 115 54 258 152 214 160 123 222 261 168 186 136 158 322 314 308 294 290 225 160 161 186 194 220 266 54 1 282 211 198 179 139 113 120 121
73 35 141 151 180 279 247 267 343 93 222 190 197 205 200 195 211 188 31 15 61 34 346 300 301 317 323 103 164 172 182 196 194 176 108 29 2 247 162 127 130 124 115 102
161 137 186 95 152 256 230 28 143 212 160 180 193 194 207 243 279 346 108 47 18 2 355 325 325 349 329 128 117 118 141 164 218 264 102 79 53 257 98 112 104 98 110 112
115 168 177 159 209 227 252 202 223 156 132 183 181 202 183 192 210 159 195 168 301 0 339 343 8 9 337 106 128 128 145 147 120 91 96 102 83 74 41 73 98 93 84 118
87 142 136 90 291 195 143 68 61 128 143 122 96 118 151 144 169 177 160 209 140 53 8 29 54 359 21 92 113 122 135 133 113 108 106 109 100 88 67 62 47 93 130 103
194 98 133 293 268 57 93 133 133 111 112 102 86 101 146 149 179 173 168 166 310 77 76 53 71 19 23 85 91 126 129 121 109 100 87 69 76 89 83 68 10 63 27 307
190 172 154 199 219 157 189 175 144 137 157 150 130 148 182 177 174 158 164 174 161 203 116 118 111 71 35 77 78 71 89 115 115 109 115 124 115 108 113 113 84 48 28 26